Regional Weather Roundup
Issued by NWS

Home | Current Version | Previous Version | Text Only | Print | Product List | Glossary On
Versions: 1 2 3 4 5 6 7 8 9 10 11 12 13 14 15 16 17 18 19 20 21 22 23 24 25 26 27 28 29 30 31 32 33 34 35 36 37 38 39 40 41 42 43 44 45 46 47 48 49 50
000
ASUS44 KFWD 240303
RWRTX
NORTH TEXAS HOURLY WEATHER ROUNDUP
NATIONAL WEATHER SERVICE FORT WORTH TX
1000 PM CDT MON OCT 23 2017

NOTE: "FAIR" INDICATES FEW OR NO CLOUDS BELOW 12,000 FEET WITH NO
SIGNIFICANT WEATHER AND/OR OBSTRUCTIONS TO VISIBILITY.

TXZ118-119-240400-
DALLAS/FORT WORTH METROPLEX

CITY           SKY/WX    TMP DP  RH WIND       PRES   REMARKS
DFW AIRPORT    PTCLDY    67  47  48 N9        30.16R
DALLAS LOVE    PTCLDY    68  47  46 N7        30.16R
FTW MEACHAM    CLEAR     66  48  52 N7        30.18R
DAL-EXECUTIVE  CLEAR     69  47  45 N13       30.16R
FTW-ALLIANCE   PTCLDY    63  47  55 NW6       30.18R
FTW-SPINKS     CLEAR     67  46  45 N10       30.20R
ARLINGTON      CLEAR     68  47  46 N13       30.17R
GRAND PRAIRIE  CLEAR     70  44  40 N13G18    30.18R
ADDISON        CLEAR     66  46  48 N8        30.17R
MESQUITE       CLEAR     67  47  49 N10       30.16R
LANCASTER      CLEAR     67  48  50 N10       30.17R
$$

TXZ091>094-102>105-117-120-121-131>134-240400-
NORTH CENTRAL TEXAS

CITY           SKY/WX    TMP DP  RH WIND       PRES   REMARKS
SHRMAN/DENISON CLEAR     61  47  60 N7        30.19R
GAINESVILLE    CLEAR     58  46  65 N6        30.21R
BOWIE          CLEAR     61  46  57 N13       30.22R
BRIDGEPORT     CLEAR     65  47  52 N7        30.22R
DECATUR        CLEAR     62  46  55 N6        30.20R
DENTON         CLEAR     60  48  64 N7        30.18R
MCKINNEY       CLEAR     63  50  62 N8        30.16R
BONHAM         CLEAR    N/A N/A N/A NW8       30.16R
ROCKWALL       CLEAR     65  51  58 N3        30.16R
TERRELL        CLEAR     68  47  46 N9        30.15R
WAXAHACHIE     CLEAR     67  50  54 N12       30.17R
CLEBURNE       CLEAR     66  48  52 N14       30.19R HAZE
GRANBURY       CLEAR     68  47  47 N12       30.21R
$$

TXZ083>090-098>101-113>116-127>130-139>142-154-155-240400-
WESTERN NORTH TEXAS

CITY           SKY/WX    TMP DP  RH WIND       PRES   REMARKS
WICHITA FALLS  CLEAR     59  43  55 N14       30.24R
WF-KICKAPOO    CLEAR     64  44  47 N16G22    30.26R
VERNON         CLEAR     58  40  50 N9        30.28R
ABILENE        CLEAR     61  46  57 NE8       30.25R
BRECKENRIDGE   CLEAR     65  44  46 NE5       30.24R
CISCO          CLEAR     64  45  48 N14       30.24R
EASTLAND       CLEAR     64  45  49 N15       30.23R
RANGER         CLEAR     63  46  54 N12       30.24R
MINERAL WELLS  CLEAR     61  47  59 N5        30.19R
STEPHENVILLE   CLEAR     66  46  48 N13G20    30.22R
COMANCHE       CLEAR     65  50  58 N14       30.21R
BROWNWOOD      CLEAR     68  46  45 N15       30.20R
COLEMAN        CLEAR     67  44  42 N16G24    30.22R
$$

TXZ143>147-156>162-174-175-240400-
CENTRAL TEXAS

CITY           SKY/WX    TMP DP  RH WIND       PRES   REMARKS
WACO           CLEAR     60  54  80 NW3       30.12R
WACO-TSTC      CLEAR     59  54  82 CALM      30.12R
WACO-MCGREGOR  CLEAR     62  53  72 NW8       30.13
HILLSBORO      CLEAR     66  53  61 N14       30.15R
CORSICANA      CLEAR     65  51  60 N9        30.14R
MEXIA          CLEAR     66  46  47 W12       30.11R
HEARNE         CLEAR     58  56  96 CALM      30.12R
CAMERON        CLEAR     64  52  65 SW3       30.11R
TEMPLE         CLEAR     63  50  62 CALM      30.13R
KILLEEN        CLEAR     62  52  70 CALM      30.12R
KILLEEN-SKYLRK CLEAR     62  52  69 CALM      30.13R
FORT HOOD      CLEAR     65  52  62 CALM      30.10R
GATESVILLE     CLEAR     63  54  72 CALM      30.15R
HAMILTON       CLEAR     67  51  56 N14G20    30.18R
LAMPASAS       CLEAR     62  53  72 CALM      30.14R
$$

TXZ095>097-106>112-122>126-135>138-148>153-164>167-240400-
EAST TEXAS

CITY           SKY/WX    TMP DP  RH WIND       PRES   REMARKS
PARIS          CLEAR     62  49  62 NW12      30.13R
SULPHUR SPRNGS CLEAR     66  50  56 N10       30.15R
MOUNT PLEASANT CLEAR     65  49  57 NW9       30.13R
GILMER         CLEAR     66  48  52 NW8       30.11R
MINEOLA        CLEAR     64  50  59 N6        30.12R
TYLER          CLEAR     61  50  67 N5        30.11R
LONGVIEW       CLEAR     62  52  69 NW5       30.08R
MARSHALL       CLEAR     55  51  89 MISG      30.09S
ATHENS         CLEAR     63  46  55 NW6       30.11R
PALESTINE      CLEAR     64  63  94 CALM      30.11R
JACKSONVILLE   CLEAR     67  46  47 W5        30.11S
HENDERSON      CLEAR     55  51  86 CALM      30.10R
CENTER         CLEAR     60  55  84 CALM      30.09R
NACOGDOCHES    CLEAR     55  53  93 CALM      30.10R
LUFKIN         CLEAR     55  54  96 CALM      30.09R
$$

SUPPLEMENTAL OBSERVATIONS (NWS FORT WORTH AREA)

CITY           SKY/WX    TMP DP  RH WIND       PRES   REMARKS
$$

SUPPLEMENTAL OBSERVATIONS (NWS NORMAN AREA)

CITY           SKY/WX    TMP DP  RH WIND       PRES   REMARKS
GOODLETT         N/A     59  37  44 N10       30.30R
ODELL            N/A     53  43  69 N9        30.29R
CROWELL          N/A     60  40  48 N10       30.29R
KNOX CITY        N/A     61  43  52 N7        30.28R
SEYMOUR          N/A     60  48  66 N7        30.26R
$$

SUPPLEMENTAL OBSERVATIONS (NWS SAN ANGELO AREA)

CITY           SKY/WX    TMP DP  RH WIND       PRES   REMARKS
WEINERT          N/A     60  45  57 N7        30.27R
HASKELL          N/A     55  46  70 N8        30.26R
THROCKMORTON     N/A     59  47  65 N3        30.26R
STAMFORD         N/A     61  47  60 NE6       30.27R
CLYDE            N/A     63  45  52 NE13      30.27R
$$

SUPPLEMENTAL OBSERVATIONS (NWS SHREVEPORT AREA)

CITY           SKY/WX    TMP DP  RH WIND       PRES   REMARKS
$$

SUPPLEMENTAL OBSERVATIONS ARE A COLLECTION OF AUTOMATED INSTRUMENTS
THAT ARE MAINTAINED BY A VARIETY OF FEDERAL AND STATE AGENCIES.
CERTAIN ELEMENTS...SUCH AS HUMIDITY VALUES AND SUSTAINED WIND
SPEEDS...MAY BE APPROXIMATED.





USA.gov is the U.S. government's official web portal to all federal, state and local government web resources and services.